STARLINK-32706 (62308 NORAD) Tracking and Keplerian Element Data

This shows tracking and keplerian element data for the satellite.

Feedback or suggestion? Click here.




ElementValue
Catalog62308
NameSTARLINK-32706
Epoch Orbit825
Epoch Day34.7943932
Epoch Year2025
RAAN250.8397
Inclination53.1588
Eccentricity0.0001194
Argument of Perigee94.7697
Mean Anonmoly265.3445
Mean Motion15.39626665
Decay Rate8.607E-05
L11 62308U 24239H 25034.79439320 .00008607 00000+0 22486-3 0 9995
L22 62308 53.1588 250.8397 0001194 94.7697 265.3445 15.39626665 8255



Live tracking and technical data element details for STARLINK-32706 (NORAD 62308). STARLINK-32706 can be tracked NOW for your location showing map with azimuth and elevation plus other details from your city location.







IsCatalogInMostPopularTable: catalog: 62308, numindb: 24
Update: records affected: 1



GetName: 62308 STARLINK-32706

Hit Count: updated at: Sat, 24 May 2025 16:58:16 GMT